AST,Max TemperatureF,Mean TemperatureF,Min TemperatureF,Max Dew PointF,MeanDew PointF,Min DewpointF,Max Humidity, Mean Humidity, Min Humidity, Max Sea Level PressureIn, Mean Sea Level PressureIn, Min Sea Level PressureIn, Max VisibilityMiles, Mean VisibilityMiles, Min VisibilityMiles, Max Wind SpeedMPH, Mean Wind SpeedMPH, Max Gust SpeedMPH,PrecipitationIn, CloudCover, Events, WindDirDegrees
2013-8-1,89,83,77,77,73,70,79,70,59,30.01,29.97,29.92,6,6,6,23,8,,0.00,3,,84
2013-8-2,89,84,78,73,72,70,78,68,55,30.01,29.97,29.92,6,6,6,21,8,,0.00,5,,72
2013-8-3,91,86,80,77,72,70,74,68,55,30.01,29.97,29.92,6,6,5,23,7,,0.00,6,,76
2013-8-4,87,82,78,75,73,72,83,71,58,30.01,29.95,29.86,6,6,5,18,5,,0.00,2,,78
2013-8-5,86,82,77,75,72,70,83,77,62,29.98,29.94,29.89,6,6,2,15,3,,0.00,2,Rain,93
2013-8-6,86,80,75,75,72,70,89,75,66,29.95,29.91,29.86,6,6,6,14,4,,0.00,2,,95
2013-8-7,86,82,77,75,73,72,84,75,66,29.95,29.89,29.83,6,6,5,17,8,,0.00,4,Rain,119
2013-8-8,86,80,73,77,73,70,94,81,62,29.92,29.87,29.83,6,6,1,17,9,,0.00,5,Rain-Thunderstorm,102
2013-8-9,86,80,73,77,73,70,89,77,62,29.92,29.87,29.83,6,6,6,14,6,,0.00,5,,89
2013-8-10,84,78,73,77,73,70,100,85,78,29.95,29.91,29.86,6,6,2,18,8,,0.00,6,Rain,88
2013-8-11,86,80,75,75,73,68,94,79,66,29.95,29.91,29.86,6,5,1,21,10,25,0.00,6,Rain,94
2013-8-12,87,81,75,73,72,72,89,74,62,29.98,29.92,29.86,6,6,6,18,6,,0.00,5,Rain,79
2013-8-13,87,81,75,77,73,72,89,77,62,29.98,29.93,29.89,6,6,6,21,7,,0.00,5,,77
2013-8-14,87,82,78,77,73,72,84,72,62,29.98,29.93,29.89,6,6,6,18,10,,0.00,6,,81
2013-8-15,87,82,77,75,72,70,84,72,55,29.95,29.92,29.86,6,6,6,15,4,,0.00,6,Rain,39
2013-8-16,87,81,75,75,71,68,83,72,62,29.95,29.91,29.86,6,6,6,14,4,,0.00,6,,99
2013-8-17,86,80,75,77,73,70,94,81,70,29.95,29.91,29.86,6,5,2,15,3,,0.00,5,Rain,60
2013-8-18,84,80,77,79,75,73,94,87,79,29.95,29.89,29.83,6,6,5,8,0,,0.00,6,Rain-Thunderstorm,45
2013-8-19,84,80,77,77,74,68,89,80,58,29.95,29.90,29.86,6,6,4,17,8,25,0.00,6,Rain,145
2013-8-20,87,82,78,77,74,72,84,74,62,29.98,29.93,29.89,6,6,6,15,11,,0.00,5,Rain,116
2013-8-21,86,82,78,77,74,72,84,75,70,29.98,29.93,29.89,6,6,6,10,3,,0.00,4,,107
2013-8-22,87,82,77,77,73,70,94,74,66,29.95,29.89,29.83,6,6,6,14,3,,0.00,2,,64
2013-8-23,102,90,77,79,73,70,79,71,42,29.92,29.87,29.83,6,6,6,14,4,,0.00,2,,79
2013-8-24,86,82,77,79,74,72,84,74,66,29.95,29.90,29.86,6,6,4,16,8,,0.00,5,,106
2013-8-25,87,84,80,77,74,72,84,73,66,29.98,29.92,29.89,6,6,6,12,8,,0.00,6,,109
2013-8-26,87,82,77,77,73,70,84,73,58,29.95,29.92,29.89,6,6,6,6,1,,0.00,5,,73
2013-8-27,86,82,77,75,73,72,89,79,70,29.98,29.91,29.86,6,6,2,8,1,,0.00,5,Thunderstorm,89
2013-8-28,82,78,75,77,73,70,100,84,70,30.01,29.97,29.92,6,6,4,12,3,,0.00,5,Rain-Thunderstorm,111
2013-8-29,86,80,73,75,73,70,89,78,66,30.04,29.97,29.92,6,6,1,72,4,18,0.00,3,Rain-Thunderstorm,131
2013-8-30,86,82,77,75,73,70,89,76,66,30.01,29.96,29.89,6,6,5,7,1,,0.00,4,Rain,97
2013-8-31,87,81,75,79,75,72,89,79,66,29.98,29.93,29.89,6,6,3,9,2,,0.00,6,Rain,296